Forside
METAR-TAF:

METAR-TAF

Lufthavne :

Taylor County Airport

Medford, Wisconsin, USA

Breddekreds: 45-06-04N, længdekreds: 090-18-12W, højde: 448 m

Aktuelle vejr

Denne rapport blev lavet for 8 minutter siden, kl. 01:15 UTC
Vind 3 kt fra vestnordvest
Temperatur 12°C
Fugtighed 67%
Tryk 1012 hPa
Sigt: 16.1 km
skyfri

METAR: KMDZ 220115Z AUTO 29003KT 10SM CLR 12/06 A2989 RMK AO2 T01230057

Tid: 20:23 (01:23 UTC)


TAF: fraværende

Vejrobservationer og prognoser fra mere end 4000 lufthavne (METAR og TAF).

De gule og røde prikker repræsenterer de meteorologiske stationer.

Flyt musen over at se navnet på stationen.

Så klik over at se vejr observationer og prognoser.

At skifte det kort: Klik på de grønne knapper med et sort kors for at zoome ind; på den grønne knap med en bindestreg for at zoome ud; eller på de grønne pile for tilstødende kort.


METAR-TAF: